Weather History for KPAE - January, 2013

Change the Weather History Date:

Sunday, January 6, 2013

  Actual Average Record
Temperature  
Mean Temperature 42 °F -  
Max Temperature 44 °F 42 °F 59 °F (2003)
Min Temperature 39 °F 29 °F 10 °F (1982)
Degree Days  
Heating Degree Days 24    
Moisture  
Dew Point 38 °F    
Average Humidity 87    
Maximum Humidity 93    
Minimum Humidity 76    
Precipitation  
Precipitation 0.13 in - - ()
Sea Level Pressure  
Sea Level Pressure 30.11 in    
Wind  
Wind Speed 10 mph (SSE)    
Max Wind Speed 17 mph    
Max Gust Speed 24 mph    
Visibility 9 miles    
Events Rain    
Averages and records for this station are not official NWS values.
T = Trace of Precipitation, MM = Missing Value Source: NWS Daily Summary

Daily Weather History Graph

Daily Weather History Graph

Search for Another Location

Airport or City:

Trip Planner

Search our weather history database for the weather conditions in past years. The results will help you decide how hot, cold, wet, or windy it might be!

Date:

Astronomy

Jan. 06, 2013 Rise Set
Actual Time 7:57 AM PST 4:32 PM PST
Civil Twilight 7:22 AM PST 5:08 PM PST
Nautical Twilight 6:42 AM PST 5:47 PM PST
Astronomical Twilight 6:05 AM PST 6:25 PM PST
Moon 2:08 AM PST (1/6) 12:11 PM PST (1/6)
Length of Visible Light 9h 46m
Length of Day
8h 35m
Waning Crescent, 32% of the Moon is Illuminated
Jan 6
Waning Crescent
Jan 11
New
Jan 18
First Quarter
Jan 26
Full
Feb 3
Last Quarter

Hourly Weather History & Observations

Time (PST) Temp. Windchill Dew Point Humidity Pressure Visibility Wind Dir Wind Speed Gust Speed Precip Events Conditions
12:53 AM 42.1 °F 36.6 °F 39.0 °F 89% 30.14 in 9.0 mi SSE 9.2 mph - 0.00 in   Overcast
1:06 AM 41.0 °F 35.2 °F 39.2 °F 93% 30.13 in 8.0 mi SSE 9.2 mph - N/A   Overcast
1:51 AM 41.0 °F 36.4 °F 39.2 °F 93% 30.14 in 4.0 mi South 6.9 mph - N/A   Overcast
1:53 AM 41.0 °F 36.4 °F 39.0 °F 93% 30.15 in 4.0 mi South 6.9 mph - N/A   Overcast
2:01 AM 41.0 °F 35.8 °F 37.4 °F 87% 30.14 in 5.0 mi South 8.1 mph - N/A   Overcast
2:53 AM 41.0 °F 36.4 °F 37.9 °F 89% 30.16 in 9.0 mi SSE 6.9 mph - N/A   Overcast
3:21 AM 41.0 °F 35.8 °F 37.4 °F 87% 30.14 in 10.0 mi SSE 8.1 mph - N/A   Overcast
3:53 AM 39.9 °F 36.7 °F 37.0 °F 89% 30.16 in 9.0 mi SSE 4.6 mph - N/A   Overcast
4:53 AM 39.9 °F 35.8 °F 37.0 °F 89% 30.14 in 10.0 mi SSE 5.8 mph - N/A   Overcast
5:45 AM 39.2 °F 32.5 °F 37.4 °F 93% 30.13 in 10.0 mi SSE 10.4 mph - N/A   Overcast
5:53 AM 39.9 °F 33.9 °F 37.0 °F 89% 30.14 in 10.0 mi SSE 9.2 mph - N/A   Overcast
6:39 AM 39.2 °F 33.0 °F 37.4 °F 93% 30.13 in 10.0 mi South 9.2 mph - N/A   Overcast
6:51 AM 39.2 °F 33.0 °F 37.4 °F 93% 30.12 in 10.0 mi SSE 9.2 mph - N/A   Overcast
6:53 AM 39.9 °F 33.9 °F 37.0 °F 89% 30.14 in 10.0 mi SSE 9.2 mph - N/A   Overcast
7:53 AM 41.0 °F 35.2 °F 37.0 °F 86% 30.15 in 10.0 mi SSE 9.2 mph - N/A   Overcast
8:53 AM 41.0 °F 35.2 °F 37.0 °F 86% 30.16 in 10.0 mi South 9.2 mph - N/A   Overcast
9:15 AM 41.0 °F 34.7 °F 37.4 °F 87% 30.14 in 10.0 mi SSE 10.4 mph - N/A   Overcast
9:22 AM 41.0 °F 33.9 °F 37.4 °F 87% 30.14 in 10.0 mi SSE 12.7 mph - N/A   Overcast
9:53 AM 41.0 °F 34.7 °F 37.9 °F 89% 30.17 in 10.0 mi SSE 10.4 mph - N/A   Overcast
10:15 AM 42.8 °F 36.6 °F 37.4 °F 81% 30.16 in 10.0 mi South 11.5 mph - N/A   Overcast
10:53 AM 43.0 °F 35.7 °F 37.0 °F 80% 30.17 in 10.0 mi South 15.0 mph 21.9 mph N/A   Overcast
11:53 AM 43.0 °F 36.4 °F 37.9 °F 82% 30.14 in 10.0 mi South 12.7 mph 21.9 mph N/A   Overcast
12:53 PM 44.1 °F 36.8 °F 37.9 °F 79% 30.12 in 10.0 mi South 16.1 mph 21.9 mph N/A   Overcast
1:53 PM 44.1 °F 36.5 °F 37.0 °F 76% 30.10 in 10.0 mi South 17.3 mph 23.0 mph N/A   Overcast
2:53 PM 43.0 °F 35.4 °F 39.0 °F 86% 30.10 in 9.0 mi South 16.1 mph 23.0 mph 0.00 in   Overcast
3:53 PM 43.0 °F 36.4 °F 39.0 °F 86% 30.10 in 6.0 mi SSE 12.7 mph - 0.01 in Rain Light Rain
4:53 PM 43.0 °F 36.4 °F 39.0 °F 86% 30.08 in 6.0 mi SSE 12.7 mph - 0.02 in Rain Light Rain
5:53 PM 42.1 °F 36.1 °F 39.0 °F 89% 30.07 in 6.0 mi SSE 10.4 mph - 0.02 in Rain Light Rain
6:49 PM 42.8 °F 38.0 °F 39.2 °F 87% 30.06 in 10.0 mi SSE 8.1 mph - 0.01 in Rain Light Rain
6:53 PM 42.1 °F 37.1 °F 39.0 °F 89% 30.07 in 10.0 mi SSE 8.1 mph - 0.01 in Rain Light Rain
7:46 PM 42.8 °F 35.8 °F 37.4 °F 81% 30.04 in 9.0 mi South 13.8 mph 24.2 mph 0.02 in Rain Light Rain
7:53 PM 43.0 °F 36.8 °F 37.9 °F 82% 30.06 in 10.0 mi South 11.5 mph 23.0 mph 0.03 in Rain Light Rain
8:53 PM 42.1 °F 34.2 °F 37.0 °F 82% 30.04 in 10.0 mi SSE 16.1 mph 23.0 mph 0.02 in Rain Light Rain
9:36 PM 41.0 °F 33.9 °F 37.4 °F 87% 30.01 in 10.0 mi SSE 12.7 mph 21.9 mph N/A   Overcast
9:53 PM 41.0 °F 32.8 °F 37.0 °F 86% 30.01 in 9.0 mi SSE 16.1 mph 20.7 mph 0.01 in   Overcast
10:00 PM 39.2 °F 30.8 °F 37.4 °F 93% 30.00 in 8.0 mi SSE 15.0 mph - N/A   Overcast
10:53 PM 39.9 °F 31.8 °F 37.0 °F 89% 30.00 in 7.0 mi SSE 15.0 mph 21.9 mph N/A   Overcast
11:53 PM 41.0 °F 33.9 °F 37.0 °F 86% 29.99 in 10.0 mi SSE 12.7 mph 19.6 mph 0.01 in Rain Light Rain